This is the latest recevied weather packets stored in our database for station/object AK4NG. If no packets are shown the sender has not sent any weather packets the latest 10 day(s).
| Time | Temp. | Humidity | Pressure | Rain* | Wind** | Luminosity | Snow |
|---|---|---|---|---|---|---|---|
| 1777641742 | 14.44° C | 94% | 1014.9 hPa | 0 mm | - | 69 W/m² | - |
| 1777641437 | 14.44° C | 94% | 1015.1 hPa | 0 mm | - | 50 W/m² | - |
| 1777641133 | 14.44° C | 94% | 1015.3 hPa | 0 mm | - | 36 W/m² | - |
| 1777640829 | 14.44° C | 94% | 1015.2 hPa | 0 mm | - | 38 W/m² | - |
| 1777640526 | 13.89° C | 94% | 1015.2 hPa | 0 mm | - | 37 W/m² | - |
| 1777640223 | 13.89° C | 95% | 1015.2 hPa | 0 mm | - | 30 W/m² | - |
| 1777639919 | 13.89° C | 95% | 1015 hPa | 0 mm | - | 26 W/m² | - |
| 1777639616 | 13.89° C | 95% | 1014.9 hPa | 0 mm | - | 26 W/m² | - |
| 1777639313 | 13.89° C | 95% | 1014.9 hPa | 0 mm | - | 32 W/m² | - |
| 1777639009 | 13.89° C | 95% | 1014.8 hPa | 0 mm | - | 30 W/m² | - |
| 1777638705 | 13.89° C | 95% | 1014.4 hPa | 0 mm | - | 20 W/m² | - |
| 1777638402 | 13.89° C | 95% | 1014.1 hPa | 0 mm | - | 26 W/m² | - |
| 1777638098 | 13.89° C | 95% | 1014.2 hPa | 0 mm | - | 20 W/m² | - |
| 1777637795 | 13.89° C | 95% | 1014 hPa | 0 mm | - | 17 W/m² | - |
| 1777637491 | 13.89° C | 94% | 1014.1 hPa | 0 mm | - | 12 W/m² | - |
| 1777637188 | 13.89° C | 95% | 1014 hPa | 0 mm | - | 14 W/m² | - |
| 1777636886 | 13.89° C | 95% | 1013.8 hPa | 0 mm | - | 11 W/m² | - |
| 1777636581 | 13.89° C | 95% | 1013.8 hPa | 0 mm | - | 18 W/m² | - |
| 1777636278 | 13.89° C | 95% | 1013.7 hPa | 0 mm | - | 17 W/m² | - |
| 1777635977 | 13.89° C | 96% | 1013.9 hPa | 0 mm | - | 21 W/m² | - |
| 1777635674 | 13.33° C | 95% | 1013.9 hPa | 0 mm | - | 17 W/m² | - |
| 1777635370 | 13.33° C | 95% | 1013.6 hPa | 0 mm | - | 9 W/m² | - |
| 1777635067 | 13.33° C | 95% | 1013.8 hPa | 0 mm | - | 7 W/m² | - |
| 1777634763 | 13.33° C | 95% | 1013.7 hPa | 0 mm | - | 6 W/m² | - |
| 1777634461 | 13.33° C | 96% | 1013.7 hPa | 0 mm | - | 6 W/m² | - |
* Rain latest hour (hover to see other rain measurements)
** Current wind speed in m/s (hover to see current wind gust speed)